Regional Weather Roundup
Issued by NWS Charleston, SC

Current Version | Previous Version | Text Only | Print | Product List | Glossary Off
Versions: 1 2 3 4 5 6 7 8 9 10 11 12 13 14 15 16 17 18 19 20 21 22 23 24 25 26 27 28 29 30 31 32 33 34 35 36 37 38 39 40 41 42 43 44 45 46 47 48 49 50

000
ASUS42 KCHS 240127
RWRCHS

REGIONAL WEATHER ROUNDUP
NATIONAL WEATHER SERVICE CHARLESTON SC
900 PM EDT TUE MAY 23 2017

NOTE: "FAIR" INDICATES FEW OR NO CLOUDS BELOW 12,000 FEET WITH NO
SIGNIFICANT WEATHER AND/OR OBSTRUCTIONS TO VISIBILITY.

NOT ALL STATIONS ARE QUALITY CONTROLLED. USE DATA WITH CAUTION...
ESPECIALLY DEWPOINT OBSERVATIONS.

SCZ027-030-031-034>040-042>050-240200-
...SOUTHEAST SOUTH CAROLINA...

CITY           SKY/WX    TMP DP  RH WIND       PRES   REMARKS
N CHARLESTON   CLOUDY    68  67  96 SE3       29.73F
WATERFRONT PRK   N/A     69  69 100 CALM      29.73S
JOHNS ISLAND   MOCLDY    70  70 100 CALM      29.74S
PINOPOLIS        N/A     68  66  94 SE6       29.63S
MONCKS CORNER  RAIN      66  64  94 S7        29.71F
SUMMERVILLE    LGT RAIN  68  66  94 SE3       29.72F
BEAUFORT MCAS  TSTM      71  71 100 S12       29.74R
BEAUFORT ARPT  RAIN      70  66  88 SW8       29.74R
HILTON HEAD IS DRIZZLE   73  73 100 N5        29.73F
WALTERBORO     CLOUDY    66  66 100 S7        29.73R
ALLENDALE      CLOUDY    68  68 100 CALM      29.71R

...SOUTHERN MIDLANDS AND PEE DEE...

CITY           SKY/WX    TMP DP  RH WIND       PRES   REMARKS
GEORGETOWN     MOCLDY    64  64 100 SE3       29.73F
KINGSTREE      LGT RAIN N/A N/A N/A S5        29.72R
ORANGEBURG     CLOUDY    69  68  96 S6        29.72S
BARNWELL       CLOUDY    70  70 100 SW3       29.72R
AIKEN          CLOUDY    64  64 100 CALM      29.75S
MANNING        CLOUDY    68  68 100 SE7       29.71R
COLUMBIA       HVY RAIN  69  66  90 SW3       29.70S VSB 1
SUMTER         DRIZZLE   68  66  94 W6        29.69S
FLORENCE       CLOUDY    69  69 100 S7        29.70F
MYRTLE BEACH   NOT AVBL
N MYRTLE BEACH LGT RAIN  70  67  90 S7        29.73F FOG

$$

GAZ063-065-086>088-099>101-113>116-118-119-134>141-150-240200-
...SOUTHEAST GEORGIA...

CITY           SKY/WX    TMP DP  RH WIND       PRES   REMARKS
SAVANNAH ARPT  CLOUDY    73  70  90 S8        29.73S
HUNTER AAF     TSTM      73  73 100 S12G21    29.71R
FORT STEWART   CLOUDY    73  70  88 SW8       29.70F
STATESBORO     CLOUDY    69  69 100 S3        29.72S
SYLVANIA       CLOUDY    69  69 100 CALM      29.72F
CLAXTON        MOCLDY   N/A N/A N/A S3        29.72S

...CSRA...CENTRAL AND FAR SOUTHEAST GEORGIA...

CITY           SKY/WX    TMP DP  RH WIND       PRES   REMARKS
THOMSON        CLOUDY    66  66  97 CALM      29.76F
AUGUSTA-BUSH   LGT RAIN  70  67  90 CALM      29.71R FOG
AUGUSTA-DANIEL CLOUDY    70  65  84 CALM      29.72R
SWAINSBORO     CLOUDY    70  70 100 CALM      29.72S
VIDALIA        MOCLDY    72  70  94 CALM      29.73R
EASTMAN        CLOUDY    73  73 100 CALM      29.74R
HAZLEHURST     FAIR      73  73 100 CALM      29.72R
ALMA           MOCLDY    75  71  87 SW10      29.72S
WAYCROSS       CLOUDY    79  73  81 SW16G24   29.74S
JESUP          RAIN      72  68  88 SW10G26   29.75R
BAXLEY         CLOUDY    75  75 100 SW5       29.73R
BRUNSWICK      LGT RAIN  77  73  88 SW12G18   29.77R
SAINT SIMONS   LGT RAIN  79  71  76 SW18G26   29.77R

$$

SCZ027-028-034-036>038-045-046-048>050-GAZ119-141-240200-
...LAKE AND SUPPLEMENTAL COASTAL OBSERVATIONS...

STATION/POSITION TIME  TEMP    WIND        PRES    WAVE   SWELL
                       AIR SEA DIR/SP/G            HT/PER HT/PER/DIR
                 (UTC) (F)     (DEG/KT/KT) (MB)    (FT/S) (FT/S/D)
WINYAH BAY       0030   67      90/  2     1006.0F
LAKE MURRAY      0020   69     230/  7/ 10 1005.4
ACE BASIN NERRS  0030   69        CALM     1007.0S
FORT PULASKI     0100   77     220/ 10/ 12 1006.8
SAPELO ISLAND    0100   79     210/ 20     1007.0

$$

ANZ835-935-AMZ111-154-330-350-352-354-370-450-454-472-240200-
...C-MAN AND BUOY OBSERVATIONS...

STATION/POSITION TIME  TEMP    WIND        PRES    WAVE   SWELL
                       AIR SEA DIR/SP/G            HT/PER HT/PER/DIR
                 (UTC) (F)     (DEG/KT/KT) (MB)    (FT/S) (FT/S/D)
BUOY 41004       0110   78 78  210/ 23/ 35 1007.4
BUOY 41008       0050   80 78  220/ 16/ 19 1007.2R   4/ 5
FOLLY BEACH CMAN 0100   72     240/  5/  6 1007.6F
CAPERS NEARSHORE 0108   75 76  220/ 12/ 19 1006.6F
FRIPP NEARSHORE  0108   77 78  230/ 16/ 19 1006.4S


STATION/POSITION TIME  TEMP    WIND        PRES    WAVE   SWELL
                       AIR SEA DIR/SP/G            HT/PER HT/PER/DIR
                 (UTC) (F)     (DEG/KT/KT) (MB)    (FT/S) (FT/S/D)
5E ST. MARYS GA  0100      79                N/A     3/ 6
FRYING PAN BUOY  0110   72 78  280/ 16/ 21 1006.6
BUOY 41025       0050   75 75  240/ 19/ 25 1006.6F   6/ 7   2/100/11
CAPE LOOKOUT NC  0100   74     230/ 11/ 18 1006.5F
BUOY 41002       0050   77 76  200/ 14/ 17 1012.3F   5/ 6   3/100/ 8
BUOY 41010       0110   80 79  180/ 16/ 17 1011.9
ST AUGUSTINE FL  0100   82 78  230/ 12/ 16 1010.0R


$$




USA.gov is the U.S. government's official web portal to all federal, state and local government web resources and services.